User: anonymous   Login
Location: Lecco
(45.8566°N, 9.3977°E)
Time: 01:16:05
(UTC+02:00)
Language:

deb Explorer IX - Orbit

View from above orbital plane
View from above orbital plane
View from above satellite
View from above satellite

Ground track
Ground track

The orbit data is extracted from the following two-line orbital elements,

1 00085U 61004C   21127.80115007  .00000394  00000-0  10370-3 0  9999
2 00085  38.7728 164.8610 0386762 142.2384 220.6175 14.21659997977258
Epoch (UTC): 07 May 2021 19:13:39
Eccentricity: 0.0386762
inclination: 38.7728°
perigee height: 541 km
apogee height: 1098 km
right ascension of ascending node: 164.8610°
argument of perigee: 142.2384°
revolutions per day: 14.21659997
mean anomaly at epoch: 220.6175°
orbit number at epoch: 97725

The dashed part of the orbit path shows where the satellite is in the earth's shadow,  

DLR